BALKAN-3

导读

BALKAN-3(NORAD编号69903)是巴尔干系列的6U立方星,由保加利亚航天企业EnduroSat研发,作为同系列Balkan-2的后继星,预计2026年上半年搭乘猎鹰9号共享发射任务升空。 该卫星主要承担地球观测任务,搭载多光谱成像载荷,可获取中分辨率地表影像,服务于巴尔干地区农业监测、灾害应急响应、生态环境普查等领域,同时搭载商用技术验证载荷,推进小卫星平台技术迭代。 作为巴尔干区域自主航天布局的重要组成,它进一步填补了东南欧本土高重访率观测卫星的供给空白,当前在轨运行状态稳定。

基本信息
目录编号:
69903
目录名称:
BALKAN-3
国际标识:
2026-156AL
轨道中心:
EARTH
卫星名称:
BALKAN-3
卫星全名:
BALKAN-3
卫星状态:
在轨 (已飞行59 天)
发射日期:
2026-07-07 UTC
国别 :
(BG)
星等 :
--
轨道信息
数据来源 国际轨道数据
星历时间: 2026-09-04T19:08:41+0800
11小时前
查看轨道信息
半长轴: 6972.521km
偏心率: 0.0002433
轨道倾角: 97.751°
近地点辐角 331.983°
升交点赤经 146.898°
平近点角 28.125°
近地点: 592.687km
远地点: 596.081km
周期: 96.570分钟
每日圈数: 14.911387
详细信息
使用方式:
暂无
2D轨道图
3D轨道图
轨道高度分析图
轨道倾角分析图
轨道综合分析图
查看轨道综合分析图
交会数据列表
事件ID 空间交会对象 最接近时刻(TCA) 交会距离 交会风险概率(CRP) 交会风险指数(CRI) 操作
CDM_260906-065703-732006-990321
BALKAN-3 (69903)
2026-09-06T
06:57:47+0000
1.843 km
极远距离
3.03673E-6 低风险 0.45
CDM_260905-183606-270406-990322
BALKAN-3 (69903)
2026-09-05T
18:36:04+0000
2.644 km
极远距离
1.607477E-6 低风险 0.39
CDM_260905-025006-665806-990323
COSMIC (66658)
BALKAN-3 (69903)
2026-09-05T
02:50:16+0000
2.611 km
极远距离
7.487919E-7 极低风险 0.32